1499666400.5,29732,17.88,74224.3,8.31,7.79,7.79,0,*7A
1499666401.7,29733,17.88,74226.0,8.29,7.97,8.05,0,*76
1499666402.93,29734,17.88,74224.8,8.31,7.65,7.69,0,*70
1499666404.15,29735,17.88,74222.0,8.31,7.91,7.91,0,*7D
1499666405.35,29736,17.88,74226.0,8.31,7.77,7.79,0,*70
1499666406.6,29737,17.88,74220.3,8.33,7.91,7.91,0,*7D
1499666407.85,29738,17.88,74222.5,8.33,7.69,7.69,0,*72
1499666409.05,29739,17.88,74220.3,8.33,8.01,8.01,0,*73
1499666410.3,29740,17.88,74224.3,8.33,8.29,8.29,0,*7D
1499666411.5,29741,17.88,74224.3,8.33,8.01,8.01,0,*7C
1499666412.67,29742,17.88,74226.0,8.35,8.05,8.01,0,*7D
1499666413.9,29743,17.88,74226.0,8.33,8.09,8.13,0,*75
1499666415.07,29744,17.88,74224.0,8.35,8.01,8.01,0,*7F
1499666416.3,29745,17.88,74222.3,8.33,8.09,8.13,0,*73
1499666417.48,29746,17.88,74226.5,8.35,8.15,8.23,0,*78
1499666418.65,29747,17.88,74226.3,8.39,8.05,8.05,0,*70
1499666419.82,29748,17.88,74224.0,8.39,8.15,8.19,0,*73
1499666421.0,29749,17.88,74226.5,8.39,8.09,8.09,0,*7E
1499666422.17,29750,17.88,74220.8,8.35,8.01,8.05,0,*7E
1499666423.34,29751,17.88,74220.8,8.39,8.09,8.15,0,*7A
1499666424.52,29752,17.88,74220.0,8.39,8.09,8.15,0,*79
1499666425.74,29753,17.88,74220.3,8.41,8.29,8.27,0,*74
1499666426.96,29754,17.88,74220.5,8.39,7.87,7.87,0,*72
1499666428.13,29755,17.88,74218.3,8.39,8.05,8.15,0,*72
1499666429.37,29756,17.88,74222.3,8.41,8.29,8.29,0,*7F
1499666430.6,29757,17.88,74224.5,8.45,8.33,8.33,0,*7A
1499666431.81,29758,17.88,74226.8,8.41,8.15,8.19,0,*7D
1499666433.01,29759,17.88,74222.3,8.41,8.05,8.05,0,*70
1499666434.27,29760,17.88,74224.0,8.41,7.95,7.95,0,*7A
1499666435.5,29761,17.88,74220.0,8.45,7.83,7.83,0,*7F
1499666436.73,29762,17.88,74222.3,8.45,7.77,7.77,0,*7C
1499666437.99,29763,17.88,74220.5,8.41,7.69,7.69,0,*79
1499666439.24,29764,17.88,74222.8,8.41,7.69,7.69,0,*7E
1499666440.5,29765,17.88,74220.8,8.41,7.69,7.69,0,*7F
1499666441.73,29766,17.88,74220.3,8.41,7.47,7.51,0,*7B
1499666442.99,29767,17.88,74220.8,8.41,7.73,7.73,0,*7D
1499666444.24,29768,17.88,74222.8,8.41,8.29,8.37,0,*7D
1499666445.44,29769,17.88,74226.8,8.41,8.09,8.09,0,*73
1499666446.67,29770,17.88,74222.3,8.45,7.95,7.83,0,*78
1499666447.86,29771,17.88,74222.5,8.45,7.79,7.79,0,*7E
1499666449.11,29772,17.88,74220.3,8.41,7.69,7.61,0,*71
1499666450.34,29773,17.94,74224.3,8.41,7.51,7.47,0,*7F
1499666451.56,29774,17.88,74222.0,8.41,7.47,7.41,0,*79
1499666452.82,29775,17.88,74222.3,8.41,7.61,7.61,0,*7E
1499666454.08,29776,17.88,74222.3,8.41,7.69,7.69,0,*7D
1499666455.28,29777,17.88,74216.0,8.41,7.51,7.51,0,*7C
1499666456.53,29778,17.88,74222.3,8.41,7.47,7.47,0,*73
1499666457.78,29779,17.88,74220.5,8.41,7.69,7.69,0,*72
1499666459.04,29780,17.88,74220.0,8.41,7.69,7.61,0,*7C
1499666460.29,29781,17.88,74220.8,8.41,7.69,7.61,0,*7D
1499666461.47,29782,17.88,74224.5,8.39,7.51,7.51,0,*79
1499666462.67,29783,17.88,74226.0,8.39,7.61,7.59,0,*73
1499666463.9,29784,17.88,74222.8,8.39,7.61,7.61,0,*7F
1499666465.16,29785,17.88,74220.8,8.41,7.61,7.61,0,*71
1499666466.33,29786,17.94,74224.8,8.39,7.51,7.51,0,*7D
1499666467.59,29787,17.88,74224.5,8.41,7.69,7.69,0,*73
1499666468.79,29788,17.88,74222.0,8.39,7.95,8.05,0,*75
1499666470.0,29789,17.88,74224.5,8.41,8.15,8.19,0,*71
1499666471.25,29790,17.88,74224.3,8.41,7.83,7.77,0,*7E
1499666472.48,29791,17.88,74222.8,8.39,7.73,7.73,0,*7B
1499666473.73,29792,17.88,74222.5,8.41,7.73,7.73,0,*77
1499666474.99,29793,17.88,74230.0,8.41,7.87,7.95,0,*75
1499666476.25,29794,17.88,74228.5,8.41,7.61,7.73,0,*72
1499666477.5,29795,17.88,74230.5,8.41,7.87,7.95,0,*73
1499666478.76,29796,17.88,74226.3,8.41,7.95,7.95,0,*73
1499666480.0,29797,17.88,74226.8,8.45,7.95,7.95,0,*76
1499666481.21,29798,17.88,74224.8,8.45,8.01,7.95,0,*7B
1499666482.47,29799,17.88,74226.8,8.47,7.91,7.95,0,*7E
1499666483.65,29800,17.88,74222.5,8.45,7.79,7.79,0,*77
1499666484.84,29801,17.88,74218.0,8.45,8.01,8.05,0,*72
1499666486.09,29802,17.88,74226.3,8.41,7.77,7.83,0,*7A
1499666487.27,29803,17.88,74222.0,8.45,8.15,8.15,0,*74
1499666488.51,29804,17.88,74226.3,8.45,8.13,8.13,0,*73
1499666489.72,29805,17.88,74230.3,8.47,8.23,8.15,0,*75
1499666490.98,29806,17.88,74226.3,8.47,8.37,8.33,0,*77
1499666492.18,29807,17.88,74224.5,8.47,8.05,8.05,0,*72
1499666493.39,29808,17.88,74224.0,8.47,8.01,8.01,0,*7D
1499666494.64,29809,17.88,74220.5,8.47,7.83,7.83,0,*7C
1499666495.87,29810,17.88,74220.5,8.47,7.79,7.69,0,*75
1499666497.13,29811,17.88,74216.5,8.47,7.77,7.69,0,*7A
1499666498.37,29812,17.88,74220.3,8.45,7.69,7.69,0,*74
1499666499.63,29813,17.88,74220.8,8.47,7.77,7.69,0,*78
1499666500.86,29814,17.88,74216.8,8.45,7.69,7.77,0,*7D
1499666502.13,29815,17.88,74214.0,8.47,7.77,7.69,0,*7E
1499666503.33,29816,17.88,74216.5,8.47,7.59,7.59,0,*72
1499666504.54,29817,17.88,74218.8,8.45,7.47,7.55,0,*72
1499666505.77,29818,17.88,74214.8,8.45,7.47,7.47,0,*7E
1499666506.95,29819,17.88,74220.5,8.45,7.55,7.55,0,*7F
1499666508.18,29820,17.88,74218.5,8.47,7.47,7.45,0,*75
1499666509.39,29821,17.88,74216.5,8.45,7.55,7.47,0,*77
1499666510.59,29822,17.88,74214.0,8.45,7.33,7.47,0,*74
1499666511.85,29823,17.88,74218.8,8.47,7.69,7.77,0,*7B
1499666513.08,29824,17.88,74218.8,8.45,7.91,7.91,0,*71
1499666514.26,29825,17.88,74220.3,8.45,7.55,7.59,0,*7C
1499666515.49,29826,17.88,74222.3,8.45,7.83,7.91,0,*70
1499666516.7,29827,17.88,74222.8,8.47,7.79,7.79,0,*70
1499666517.91,29828,17.88,74222.3,8.45,7.79,7.91,0,*7B
1499666519.16,29829,17.88,74226.5,8.47,7.83,7.91,0,*7D
1499666520.35,29830,17.88,74220.0,8.45,8.15,8.15,0,*74
1499666521.59,29831,17.88,74220.8,8.47,8.27,8.37,0,*76
1499666522.79,29832,17.88,74226.5,8.47,8.23,8.23,0,*74
1499666524.0,29833,17.88,74222.8,8.49,8.29,8.27,0,*75
1499666525.23,29834,17.88,74224.8,8.49,8.41,8.41,0,*7C
1499666526.46,29835,17.88,74226.5,8.49,8.47,8.47,0,*7D
1499666527.71,29836,17.88,74224.5,8.51,8.51,8.47,0,*70
1499666528.93,29837,17.88,74224.8,8.51,8.45,8.51,0,*73
1499666530.15,29838,17.88,74226.0,8.51,8.45,8.51,0,*7C
1499666531.4,29839,17.88,74224.8,8.51,8.29,8.33,0,*73
1499666532.6,29840,17.88,74224.5,8.51,8.45,8.45,0,*76
1499666533.86,29841,17.88,74226.0,8.51,8.33,8.41,0,*72
1499666535.1,29842,17.88,74226.5,8.51,8.29,8.29,0,*74
1499666536.28,29843,17.88,74228.5,8.53,8.45,8.45,0,*77
1499666537.51,29844,17.88,74226.0,8.53,8.51,8.59,0,*78
1499666538.74,29845,17.88,74224.0,8.55,8.59,8.61,0,*7C
1499666540.0,29846,17.88,74222.8,8.55,8.13,8.13,0,*74
1499666541.23,29847,17.88,74220.8,8.55,8.23,8.33,0,*74
1499666542.49,29848,17.88,74226.3,8.55,8.55,8.55,0,*7A
1499666543.71,29849,17.88,74222.3,8.55,8.69,8.71,0,*72
1499666544.91,29850,17.88,74224.8,8.57,8.71,8.79,0,*79
1499666546.11,29851,17.88,74224.5,8.57,8.71,8.69,0,*79
1499666547.32,29852,17.88,74226.0,8.59,8.15,8.19,0,*71
1499666548.58,29853,17.88,74222.5,8.59,7.95,7.95,0,*7C
1499666549.79,29854,17.88,74226.0,8.59,7.79,7.79,0,*7B
1499666551.0,29855,17.88,74222.8,8.59,8.15,8.15,0,*7A
1499666552.21,29856,17.88,74224.0,8.59,7.51,7.51,0,*79
1499666553.44,29857,17.88,74222.5,8.59,7.61,7.59,0,*73
1499666554.65,29858,17.88,74224.5,8.59,8.15,8.15,0,*77
1499666555.91,29859,17.88,74226.3,8.59,8.41,8.51,0,*77
1499666557.09,29860,17.88,74220.5,8.57,8.01,8.01,0,*72
1499666558.32,29861,17.88,74224.3,8.59,7.73,7.79,0,*77
1499666559.55,29862,17.88,74226.0,8.59,7.95,8.15,0,*79
1499666560.76,29863,17.88,74224.0,8.57,8.33,8.27,0,*74
1499666562.01,29864,17.88,74224.8,8.59,8.47,8.47,0,*78
1499666563.27,29865,17.88,74228.3,8.59,8.59,8.51,0,*71
1499666564.46,29866,17.88,74224.5,8.59,8.61,8.65,0,*7E
1499666565.72,29867,17.88,74226.5,8.59,8.51,8.47,0,*7C
1499666566.92,29868,17.88,74224.8,8.59,8.61,8.61,0,*74
1499666568.1,29869,17.88,74224.0,8.65,8.65,8.61,0,*7E
1499666569.27,29870,17.88,74226.0,8.65,8.69,8.69,0,*72
1499666570.48,29871,17.88,74220.3,8.65,8.75,8.79,0,*7F
1499666571.73,29872,17.88,74226.0,8.63,8.89,8.89,0,*76
1499666572.91,29873,17.88,74222.8,8.65,8.61,8.61,0,*71
1499666574.12,29874,17.88,74224.0,8.65,8.79,8.75,0,*7A
1499666575.31,29875,17.88,74226.0,8.65,8.79,8.87,0,*76
1499666576.5,29876,17.88,74224.3,8.69,9.03,9.03,0,*78
1499666577.73,29877,17.88,74226.3,8.67,9.03,9.11,0,*74
1499666578.95,29878,17.88,74228.3,8.71,8.71,8.83,0,*72
1499666580.13,29879,17.88,74224.5,8.69,8.69,8.65,0,*7B
1499666581.33,29880,17.88,74224.8,8.69,9.03,9.11,0,*72
1499666582.58,29881,17.88,74228.3,8.71,8.97,8.97,0,*79
1499666583.8,29882,17.88,74224.0,8.73,8.89,8.97,0,*77
1499666585.03,29883,17.88,74224.3,8.71,8.83,8.75,0,*72
1499666586.24,29884,17.88,74226.8,8.73,9.07,9.01,0,*78
1499666587.47,29885,17.88,74226.0,8.71,9.25,9.19,0,*72
1499666588.67,29886,17.94,74228.5,8.75,9.25,9.33,0,*7D
1499666589.92,29887,17.88,74222.8,8.75,9.01,9.01,0,*7B
1499666591.17,29888,17.88,74226.0,8.75,9.11,9.11,0,*74
1499666592.42,29889,17.88,74228.5,8.75,9.11,9.11,0,*75
1499666593.64,29890,17.88,74224.0,8.77,8.75,8.79,0,*73
1499666594.87,29891,17.88,74228.3,8.77,8.45,8.47,0,*7C
1499666596.08,29892,17.88,74224.8,8.77,8.45,8.45,0,*7D
1499666597.29,29893,17.88,74224.3,8.77,8.27,8.23,0,*78
1499666598.46,29894,17.88,74226.8,8.79,8.61,8.61,0,*75
1499666599.67,29895,17.88,74228.0,8.77,8.79,8.79,0,*7A
1499666600.88,29896,17.88,74224.3,8.77,8.15,8.23,0,*7C
1499666602.15,29897,17.88,74226.5,8.77,8.55,8.55,0,*78
1499666603.38,29898,17.88,74230.3,8.79,8.37,8.37,0,*79
1499666604.56,29899,17.88,74228.0,8.79,8.15,8.15,0,*78
1499666605.82,29900,17.88,74226.5,8.77,7.91,7.87,0,*70
1499666607.06,29901,17.88,74228.5,8.77,8.33,8.27,0,*73
1499666608.25,29902,17.88,74228.3,8.75,7.97,7.97,0,*77
1499666609.51,29903,17.88,74226.8,8.75,8.13,8.13,0,*76
1499666610.73,29904,17.88,74228.3,8.75,8.33,8.23,0,*70
1499666611.96,29905,17.88,74226.8,8.77,8.33,8.27,0,*77
1499666613.23,29906,17.88,74226.0,8.77,8.59,8.55,0,*7D
1499666614.49,29907,17.88,74222.5,8.75,8.55,8.55,0,*72
1499666615.74,29908,17.88,74224.0,8.75,8.47,8.47,0,*7D
1499666617.0,29909,17.88,74224.0,8.77,8.37,8.37,0,*7E
1499666618.23,29910,17.88,74226.8,8.75,8.55,8.45,0,*75
1499666619.43,29911,17.88,74226.8,8.75,7.97,8.01,0,*75
1499666620.65,29912,17.88,74224.5,8.75,8.09,8.13,0,*7D
1499666621.85,29913,17.88,74224.0,8.75,8.09,8.09,0,*77
1499666623.06,29914,17.88,74230.0,8.75,8.15,8.23,0,*75
1499666624.31,29915,17.88,74228.3,8.75,8.47,8.47,0,*71
1499666625.52,29916,17.88,74228.5,8.77,8.27,8.23,0,*74
1499666626.73,29917,17.88,74226.8,8.77,8.27,8.27,0,*71
1499666627.94,29918,17.88,74228.8,8.75,8.15,8.15,0,*7C
1499666629.14,29919,17.88,74226.3,8.75,7.97,7.97,0,*7D
1499666630.33,29920,17.88,74228.5,8.75,7.97,7.97,0,*77
1499666631.56,29921,17.88,74228.8,8.75,7.77,7.79,0,*78
1499666632.74,29922,17.88,74228.5,8.73,7.51,7.55,0,*77
1499666633.94,29923,17.88,74228.3,8.71,7.37,7.37,0,*70
1499666635.19,29924,17.88,74228.0,8.71,7.73,7.69,0,*7C
1499666636.39,29925,17.88,74226.3,8.71,8.01,8.01,0,*76
1499666637.65,29926,17.88,74228.3,8.75,8.13,8.13,0,*71
1499666638.85,29927,17.88,74230.5,8.71,8.05,8.05,0,*74
1499666640.02,29928,17.88,74226.0,8.73,8.05,8.01,0,*7D
1499666641.28,29929,17.88,74230.0,8.71,7.95,7.95,0,*7A
1499666642.51,29930,17.88,74226.8,8.73,7.95,7.95,0,*70
1499666643.69,29931,17.88,74224.0,8.73,8.19,8.19,0,*71
1499666644.87,29932,17.88,74226.0,8.73,8.19,8.09,0,*73
1499666646.07,29933,17.88,74230.3,8.73,7.97,7.95,0,*71
1499666647.3,29934,17.94,74230.3,8.69,7.87,7.87,0,*7F
1499666648.5,29935,17.88,74222.5,8.71,8.15,8.15,0,*77
1499666649.76,29936,17.88,74224.8,8.71,8.41,8.37,0,*75
1499666650.96,29937,17.88,74224.0,8.71,8.61,8.61,0,*75
1499666652.19,29938,17.88,74222.3,8.73,8.55,8.55,0,*78
1499666653.4,29939,17.88,74220.0,8.73,8.13,8.09,0,*72
1499666654.65,29940,17.88,74222.5,8.71,7.73,7.73,0,*75
1499666655.88,29941,17.94,74228.0,8.73,8.13,8.13,0,*76
1499666657.09,29942,17.88,74226.5,8.71,8.19,8.15,0,*7B
1499666658.34,29943,17.88,74228.0,8.71,7.83,7.83,0,*76
1499666659.59,29944,17.88,74226.3,8.71,7.15,7.11,0,*75
1499666660.79,29945,17.88,74224.5,8.71,7.37,7.37,0,*70
1499666661.99,29946,17.88,74220.5,8.71,7.59,7.59,0,*73
1499666663.19,29947,17.88,74222.0,8.69,7.59,7.47,0,*74
1499666664.39,29948,17.88,74220.8,8.67,7.37,7.37,0,*7A
1499666665.65,29949,17.88,74222.5,8.67,7.23,7.19,0,*72
1499666666.9,29950,17.88,74226.3,8.67,7.23,7.23,0,*73
1499666668.11,29951,17.88,74224.5,8.67,7.45,7.37,0,*77
1499666669.34,29952,17.88,74224.5,8.65,7.19,7.15,0,*7F
1499666670.52,29953,17.88,74224.3,8.65,7.51,7.51,0,*72
1499666671.75,29954,17.88,74220.3,8.65,7.65,7.73,0,*72
1499666672.97,29955,17.88,74220.3,8.65,7.51,7.61,0,*77
1499666674.23,29956,17.88,74224.3,8.63,7.77,7.73,0,*75
1499666675.46,29957,17.88,74226.3,8.65,7.23,7.23,0,*76
1499666676.65,29958,17.88,74224.0,8.65,7.29,7.29,0,*79
1499666677.85,29959,17.88,74224.8,8.63,7.45,7.45,0,*7E
1499666679.03,29960,17.88,74224.0,8.65,7.97,8.01,0,*72
1499666680.26,29961,17.88,74226.3,8.63,8.23,8.33,0,*74
1499666681.5,29962,17.88,74224.0,8.63,8.19,8.13,0,*7C
1499666682.7,29963,17.88,74220.5,8.65,7.97,7.95,0,*73
1499666683.89,29964,17.88,74220.5,8.65,7.55,7.51,0,*72
1499666685.07,29965,17.88,74224.0,8.65,7.45,7.45,0,*77
1499666686.27,29966,17.94,74228.0,8.63,7.45,7.45,0,*72
1499666687.53,29967,17.88,74224.0,8.63,7.61,7.61,0,*73
1499666688.73,29968,17.88,74224.8,8.63,7.41,7.33,0,*79
1499666689.99,29969,17.88,74228.5,8.63,7.65,7.61,0,*79
1499666691.2,29970,17.88,74226.5,8.63,7.55,7.51,0,*71
1499666692.4,29971,17.88,74228.5,8.63,7.51,7.45,0,*71
1499666693.6,29972,17.88,74224.3,8.63,7.41,7.45,0,*73
1499666694.86,29973,17.88,74220.3,8.59,7.69,7.69,0,*7F
1499666696.11,29974,17.88,74224.0,8.59,7.69,7.69,0,*78
1499666697.32,29975,17.88,74220.3,8.59,7.41,7.37,0,*78
1499666698.52,29976,17.88,74226.0,8.59,7.41,7.29,0,*74
1499666699.78,29977,17.88,74224.3,8.59,7.19,7.15,0,*77
1499666701.03,29978,17.88,74224.8,8.59,7.11,7.11,0,*74
1499666702.29,29979,17.88,74224.8,8.59,7.69,7.73,0,*7E
1499666703.54,29980,17.94,74228.0,8.59,7.83,7.83,0,*73
1499666704.72,29981,17.88,74228.5,8.57,7.55,7.59,0,*70
1499666705.89,29982,17.88,74224.3,8.57,8.05,8.01,0,*7B
1499666707.1,29983,17.88,74226.8,8.59,8.19,8.19,0,*70
1499666708.36,29984,17.88,74224.0,8.59,7.95,7.91,0,*73
1499666709.57,29985,17.88,74226.3,8.59,7.29,7.29,0,*76
1499666710.82,29986,17.88,74224.8,8.59,7.15,7.11,0,*71
1499666712.08,29987,17.88,74228.0,8.63,7.65,7.61,0,*79
1499666713.29,29988,17.88,74224.0,8.59,7.59,7.59,0,*7B
1499666714.49,29989,17.88,74224.3,8.57,7.55,7.47,0,*77
1499666715.74,29990,17.88,74224.0,8.59,7.83,7.83,0,*72
1499666716.97,29991,17.88,74224.0,8.57,7.95,7.95,0,*7D
1499666718.18,29992,17.88,74224.8,8.59,8.19,8.19,0,*70
1499666719.39,29993,17.88,74224.3,8.59,8.19,8.15,0,*7D
1499666720.62,29994,17.88,74228.5,8.63,8.13,8.19,0,*75
1499666721.86,29995,17.88,74224.3,8.63,8.01,8.13,0,*7D
1499666723.09,29996,17.88,74222.5,8.63,8.09,8.13,0,*76
1499666724.29,29997,17.88,74226.5,8.63,7.97,8.01,0,*7C
1499666725.55,29998,17.88,74226.8,8.63,7.77,7.77,0,*73
1499666726.78,29999,17.88,74224.8,8.65,7.15,7.15,0,*74
1499666727.98,30000,17.88,74224.0,8.59,7.37,7.37,0,*7A
1499666729.21,30001,17.88,74222.5,8.57,7.27,7.27,0,*75
1499666730.44,30002,17.88,74220.8,8.57,7.23,7.23,0,*76
1499666731.67,30003,17.88,74222.0,8.57,7.15,7.15,0,*77
1499666732.92,30004,17.88,74230.0,8.59,7.19,7.27,0,*73
1499666734.1,30005,17.88,74224.3,8.57,7.45,7.45,0,*71
1499666735.3,30006,17.88,74226.8,8.59,7.37,7.29,0,*73
1499666736.53,30007,17.88,74224.0,8.57,7.27,7.23,0,*77
1499666737.77,30008,17.88,74226.5,8.59,7.29,7.27,0,*7C
1499666738.94,30009,17.88,74226.5,8.57,7.37,7.45,0,*78
1499666740.13,30010,17.88,74226.8,8.55,7.33,7.33,0,*77
1499666741.33,30011,17.88,74224.3,8.55,7.37,7.33,0,*72
1499666742.55,30012,17.88,74224.0,8.57,7.47,7.47,0,*77
1499666743.73,30013,17.88,74228.0,8.57,7.55,7.59,0,*7A
1499666744.96,30014,17.88,74228.8,8.55,7.87,7.79,0,*72
1499666746.14,30015,17.88,74226.0,8.57,7.59,7.59,0,*70
1499666747.37,30016,17.94,74226.0,8.57,7.27,7.27,0,*73
1499666748.57,30017,17.88,74226.5,8.55,7.33,7.37,0,*74
1499666749.77,30018,17.88,74220.3,8.55,7.37,7.33,0,*7B
1499666751.02,30019,17.88,74226.0,8.55,7.27,7.27,0,*7E
1499666752.27,30020,17.88,74226.8,8.55,7.15,7.15,0,*74
1499666753.47,30021,17.88,74220.0,8.55,7.45,7.45,0,*75
1499666754.69,30022,17.88,74226.3,8.55,7.15,7.09,0,*7B
1499666755.87,30023,17.88,74226.5,8.53,7.05,7.05,0,*71
1499666757.05,30024,17.88,74224.5,8.53,7.09,6.97,0,*70
1499666758.28,30025,17.88,74226.5,8.53,7.19,7.19,0,*77
1499666759.5,30026,17.88,74232.0,8.53,7.23,7.29,0,*7E
1499666760.7,30027,17.88,74230.3,8.53,7.33,7.23,0,*74
1499666761.91,30028,17.88,74230.3,8.53,7.29,7.23,0,*70
1499666763.09,30029,17.88,74226.5,8.53,7.51,7.45,0,*7E
1499666764.27,30030,17.94,74230.0,8.53,7.09,7.09,0,*73
1499666765.51,30031,17.88,74226.0,8.55,7.15,7.23,0,*71
1499666766.72,30032,17.94,74228.3,8.53,7.11,7.09,0,*78
1499666767.95,30033,17.88,74230.0,8.53,7.19,7.19,0,*70
1499666769.13,30034,17.88,74228.0,8.53,7.05,6.97,0,*7D
1499666770.36,30035,17.88,74228.0,8.53,7.23,7.19,0,*7F
1499666771.59,30036,17.88,74226.8,8.53,7.19,7.19,0,*75
1499666772.8,30037,17.88,74228.0,8.51,6.97,6.93,0,*72
1499666774.0,30038,17.88,74226.5,8.51,6.97,6.93,0,*7D
1499666775.25,30039,17.88,74230.3,8.51,7.19,7.19,0,*78
1499666776.5,30040,17.88,74226.3,8.51,7.19,7.11,0,*7E
1499666777.68,30041,17.88,74226.8,8.53,7.33,7.41,0,*70
1499666778.88,30042,17.88,74230.0,8.51,7.45,7.45,0,*74
1499666780.08,30043,17.88,74228.3,8.51,7.55,7.55,0,*75
1499666781.31,30044,17.88,74226.8,8.51,7.61,7.55,0,*75
1499666782.54,30045,17.88,74226.5,8.51,7.61,7.45,0,*75
1499666783.74,30046,17.88,74224.5,8.51,7.45,7.51,0,*75
1499666784.95,30047,17.88,74224.0,8.51,7.29,7.29,0,*71
1499666786.15,30048,17.88,74226.0,8.51,7.41,7.33,0,*7B
1499666787.36,30049,17.88,74226.5,8.49,7.29,7.27,0,*78
1499666788.61,30050,17.88,74228.3,8.51,7.65,7.73,0,*70
1499666789.82,30051,17.88,74230.5,8.53,7.61,7.55,0,*73
1499666791.03,30052,17.88,74226.3,8.51,7.55,7.51,0,*71
1499666792.23,30053,17.88,74226.3,8.51,7.51,7.51,0,*74
1499666793.46,30054,17.88,74224.8,8.51,7.61,7.55,0,*74
1499666794.72,30055,17.94,74228.3,8.51,7.61,7.61,0,*72
1499666795.97,30056,17.88,74230.8,8.51,7.65,7.61,0,*75
1499666797.23,30057,17.88,74228.0,8.51,7.65,7.61,0,*74
1499666798.43,30058,17.88,74230.5,8.51,7.45,7.41,0,*7B
1499666799.63,30059,17.88,74226.0,8.51,7.51,7.41,0,*7F
1499666800.8,30060,17.88,74226.8,8.53,7.45,7.41,0,*72
1499666802.03,30061,17.94,74230.5,8.53,7.73,7.65,0,*70
1499666803.23,30062,17.88,74228.8,8.51,7.45,7.45,0,*76
1499666804.46,30063,17.88,74230.5,8.51,7.61,7.55,0,*70
1499666805.7,30064,17.88,74230.8,8.53,7.65,7.61,0,*76
1499666806.93,30065,17.88,74232.8,8.53,7.73,7.65,0,*74
1499666808.1,30066,17.88,74228.8,8.53,7.45,7.45,0,*70
1499666809.33,30067,17.88,74230.0,8.53,7.23,7.23,0,*71
1499666810.51,30068,17.88,74224.0,8.53,7.09,7.05,0,*72
1499666811.75,30069,17.88,74230.0,8.53,7.23,7.19,0,*76
1499666812.94,30070,17.88,74232.5,8.51,7.45,7.41,0,*71
1499666814.19,30071,17.94,74228.5,8.51,7.65,7.65,0,*74
1499666815.37,30072,17.88,74230.0,8.49,7.41,7.37,0,*7F
1499666816.62,30073,17.88,74230.3,8.51,7.23,7.23,0,*76
1499666817.82,30074,17.88,74224.3,8.51,7.29,7.33,0,*7A
1499666819.02,30075,17.94,74224.8,8.51,7.09,7.05,0,*7C
1499666820.24,30076,17.94,74228.5,8.51,7.33,7.23,0,*72
1499666821.44,30077,17.88,74226.5,8.51,7.41,7.51,0,*73
1499666822.67,30078,17.94,74228.8,8.53,7.73,7.65,0,*78
1499666823.86,30079,17.88,74230.3,8.53,7.55,7.55,0,*7E
1499666825.1,30080,17.88,74234.3,8.51,7.65,7.65,0,*7A
1499666826.33,30081,17.88,74232.0,8.53,7.83,7.83,0,*79
1499666827.54,30082,17.94,74232.5,8.49,7.59,7.61,0,*7A
1499666828.75,30083,17.88,74230.3,8.53,7.29,7.23,0,*71
1499666829.93,30084,17.88,74228.5,8.53,7.55,7.51,0,*78
1499666831.12,30085,17.88,74230.3,8.53,7.51,7.51,0,*7D
1499666832.31,30086,17.94,74230.3,8.53,7.29,7.29,0,*7E
1499666833.49,30087,17.88,74230.8,8.53,7.51,7.51,0,*7F
1499666834.68,30088,17.88,74226.3,8.53,7.41,7.29,0,*7E
1499666835.85,30089,17.88,74226.0,8.53,7.45,7.33,0,*70
1499666837.04,30090,17.94,74234.5,8.53,7.33,7.29,0,*72
1499666838.21,30091,17.88,74230.5,8.53,7.41,7.33,0,*7D
1499666839.38,30092,17.88,74230.5,8.53,7.33,7.33,0,*7B
1499666840.61,30093,17.88,74230.5,8.53,7.19,7.19,0,*7A
1499666841.84,30094,17.94,74230.5,8.53,7.23,7.19,0,*74
1499666843.05,30095,17.94,74230.8,8.53,7.11,7.09,0,*75
1499666844.3,30096,17.88,74226.3,8.51,7.23,7.19,0,*74
1499666845.5,30097,17.88,74232.5,8.51,7.05,6.97,0,*76
1499666846.71,30098,17.88,74232.3,8.51,6.93,6.93,0,*73
1499666847.96,30099,17.88,74230.8,8.51,7.19,7.19,0,*72
1499666849.21,30100,17.94,74232.8,8.51,7.11,7.11,0,*73
1499666850.41,30101,17.88,74226.0,8.51,7.05,6.97,0,*78
1499666851.61,30102,17.88,74230.3,8.49,7.19,7.09,0,*79
1499666852.84,30103,17.94,74230.8,8.49,7.15,7.15,0,*79
1499666854.07,30104,17.88,74228.5,8.49,7.19,7.19,0,*7E
1499666855.27,30105,17.88,74228.5,8.51,6.97,6.97,0,*76
1499666856.47,30106,17.88,74232.3,8.51,7.09,6.93,0,*77
1499666857.65,30107,17.88,74228.8,8.49,7.37,7.37,0,*7D
1499666858.88,30108,17.88,74228.0,8.49,7.19,7.15,0,*7E
1499666860.11,30109,17.88,74230.3,8.49,7.19,7.15,0,*7F
1499666861.28,30110,17.94,74232.8,8.49,7.01,6.93,0,*71
1499666862.53,30111,17.88,74232.5,8.51,7.23,7.19,0,*7A
1499666863.76,30112,17.88,74230.5,8.49,7.19,7.15,0,*75
1499666864.93,30113,17.88,74230.3,8.49,6.83,6.83,0,*78
1499666866.16,30114,17.88,74228.8,8.49,6.73,6.69,0,*74
1499666867.36,30115,17.88,74230.8,8.49,7.15,7.09,0,*73
1499666868.53,30116,17.88,74232.5,8.49,7.09,7.05,0,*71
1499666869.71,30117,17.94,74234.3,8.49,7.05,7.05,0,*7C
1499666870.96,30118,17.94,74230.8,8.47,7.11,7.11,0,*7D
1499666872.2,30119,17.94,74228.8,8.47,6.97,6.91,0,*7A
1499666873.39,30120,17.88,74228.5,8.47,7.01,7.01,0,*76
1499666874.56,30121,17.94,74232.3,8.49,6.83,6.83,0,*79
1499666875.82,30122,17.88,74230.5,8.47,7.23,7.15,0,*71
1499666877.0,30123,17.88,74226.5,8.45,7.45,7.33,0,*76
1499666878.2,30124,17.88,74228.5,8.47,6.97,7.01,0,*7C
1499666879.4,30125,17.88,74232.0,8.47,7.01,6.97,0,*7D
1499666880.61,30126,17.94,74232.5,8.45,7.27,7.33,0,*77
1499666881.86,30127,17.88,74232.0,8.47,7.27,7.27,0,*71
1499666883.09,30128,17.88,74230.8,8.47,7.33,7.23,0,*7F
1499666884.32,30129,17.94,74232.0,8.47,7.47,7.37,0,*78
1499666885.57,30130,17.94,74230.8,8.47,7.47,7.47,0,*77
1499666886.74,30131,17.88,74228.3,8.49,7.41,7.41,0,*78
1499666887.95,30132,17.94,74230.5,8.47,7.01,6.97,0,*7B
1499666889.11,30133,17.88,74228.0,8.45,7.01,7.01,0,*76
1499666890.37,30134,17.88,74236.5,8.47,7.15,7.11,0,*77
1499666891.62,30135,17.88,74232.5,8.47,7.15,7.15,0,*72
1499666892.88,30136,17.94,74232.0,8.47,7.15,7.15,0,*71
1499666894.11,30137,17.94,74234.5,8.45,7.11,7.11,0,*72
1499666895.36,30138,17.88,74234.5,8.47,7.47,7.47,0,*7F
1499666896.61,30139,17.88,74234.5,8.47,7.91,7.91,0,*7E
1499666897.85,30140,17.88,74234.8,8.45,7.65,7.69,0,*7E
1499666899.08,30141,17.94,74234.5,8.49,7.73,7.73,0,*7F
1499666900.31,30142,17.94,74232.8,8.49,7.69,7.61,0,*74
1499666901.52,30143,17.88,74238.5,8.49,7.69,7.59,0,*7E
1499666902.75,30144,17.94,74238.3,8.49,7.27,7.27,0,*7A
1499666904.0,30145,17.94,74234.5,8.51,7.73,7.73,0,*72
1499666905.21,30146,17.88,74230.5,8.49,7.83,7.79,0,*7D
1499666906.42,30147,17.88,74232.5,8.51,7.55,7.51,0,*74
1499666907.6,30148,17.88,74232.0,8.49,7.51,7.51,0,*76
1499666908.85,30149,17.94,74234.3,8.51,7.73,7.77,0,*7A
1499666910.05,30150,17.88,74232.8,8.51,7.45,7.45,0,*76
1499666911.26,30151,17.94,74232.8,8.51,7.55,7.41,0,*72
1499666912.48,30152,17.88,74236.0,8.51,7.61,7.45,0,*72
1499666913.74,30153,17.94,74236.0,8.51,7.61,7.61,0,*75
1499666914.94,30154,17.88,74232.0,8.51,7.45,7.45,0,*72
1499666916.19,30155,17.88,74234.3,8.51,7.19,7.11,0,*7B
1499666917.39,30156,17.88,74234.5,8.53,7.33,7.23,0,*73
1499666918.62,30157,17.94,74236.5,8.51,7.29,7.23,0,*7B
1499666919.8,30158,17.88,74230.3,8.49,7.09,7.09,0,*77
1499666921.04,30159,17.88,74228.3,8.51,7.11,7.11,0,*7F
1499666922.27,30160,17.94,74232.3,8.49,7.19,7.19,0,*7C
1499666923.48,30161,17.94,74232.5,8.51,7.51,7.51,0,*74
1499666924.69,30162,17.94,74232.3,8.51,7.29,7.29,0,*77
1499666925.9,30163,17.88,74230.8,8.51,7.29,7.29,0,*76
1499666927.13,30164,17.88,74228.5,8.51,7.29,7.23,0,*7B
1499666928.38,30165,17.94,74228.8,8.51,7.23,7.19,0,*79
1499666929.58,30166,17.88,74226.5,8.51,7.05,7.05,0,*73
1499666930.75,30167,17.88,74226.3,8.49,7.09,7.09,0,*7B
1499666932.01,30168,17.88,74228.8,8.51,7.23,7.23,0,*7D